Time,TemperatureF,DewpointF,PressureIn,WindDirection,WindDirectionDegrees,WindSpeedMPH,WindSpeedGustMPH,Humidity,HourlyPrecipIn,Conditions,Clouds,dailyrainin,SoftwareType,DateUTC
2013-04-14 00:00:00,31.0,25.3,29.97,ESE,104,0.0,2.0,79,0.00,,,0.09,VWS V15.00,2013-04-14 05:00:00,
2013-04-14 00:02:00,31.0,25.3,29.97,ESE,103,0.0,0.0,79,0.00,,,0.00,VWS V14.01,2013-04-14 05:02:00,
2013-04-14 00:07:00,31.0,25.3,29.97,ESE,103,0.0,0.0,79,0.00,,,0.00,VWS V14.01,2013-04-14 05:07:00,
2013-04-14 00:13:00,31.0,25.3,29.97,ESE,103,0.0,0.0,79,0.00,,,0.00,VWS V14.01,2013-04-14 05:13:00,
2013-04-14 00:18:00,31.2,25.5,29.97,ESE,103,0.0,0.0,79,0.00,,,0.00,VWS V14.01,2013-04-14 05:18:00,
2013-04-14 00:23:00,31.4,25.6,29.97,ESE,103,0.0,0.0,79,0.00,,,0.00,VWS V14.01,2013-04-14 05:23:00,
2013-04-14 00:28:00,31.6,25.5,29.97,East,98,0.0,4.0,78,0.00,,,0.00,VWS V14.01,2013-04-14 05:28:00,
2013-04-14 00:30:00,31.7,25.6,29.96,East,97,0.0,4.0,78,0.00,,,0.00,VWS V15.00,2013-04-14 05:30:00,
2013-04-14 00:34:00,31.8,25.7,29.96,East,86,0.0,3.0,78,0.00,,,0.00,VWS V14.01,2013-04-14 05:34:00,
2013-04-14 00:39:00,32.0,25.9,29.96,East,86,1.0,3.0,78,0.00,,,0.00,VWS V14.01,2013-04-14 05:39:00,
2013-04-14 00:44:00,32.1,26.0,29.96,East,85,0.0,3.0,78,0.00,,,0.00,VWS V14.01,2013-04-14 05:44:00,
2013-04-14 00:49:00,32.2,26.1,29.97,East,85,0.0,3.0,78,0.00,,,0.00,VWS V14.01,2013-04-14 05:49:00,
2013-04-14 00:55:00,32.3,26.2,29.96,East,85,0.0,3.0,78,0.00,,,0.00,VWS V14.01,2013-04-14 05:55:00,
2013-04-14 01:00:00,32.4,26.3,29.96,ENE,77,0.0,4.0,78,0.00,,,0.00,VWS V14.01,2013-04-14 06:00:00,
2013-04-14 01:05:00,32.5,26.1,29.96,ENE,77,2.0,3.0,77,0.00,,,0.00,VWS V14.01,2013-04-14 06:05:00,
2013-04-14 01:10:00,32.6,26.2,29.96,ENE,73,0.0,6.0,77,0.00,,,0.00,VWS V14.01,2013-04-14 06:10:00,
2013-04-14 01:16:00,32.6,26.2,29.96,ENE,57,3.0,6.0,77,0.00,,,0.00,VWS V14.01,2013-04-14 06:16:00,
2013-04-14 01:21:00,32.5,26.1,29.95,NE,54,3.0,6.0,77,0.00,,,0.00,VWS V14.01,2013-04-14 06:21:00,
2013-04-14 01:26:00,32.5,26.1,29.95,ENE,58,0.0,6.0,77,0.00,,,0.00,VWS V14.01,2013-04-14 06:26:00,
2013-04-14 01:31:00,32.6,26.2,29.95,NE,49,2.0,6.0,77,0.00,,,0.00,VWS V14.01,2013-04-14 06:31:00,
2013-04-14 01:37:00,32.6,26.2,29.95,NE,50,2.0,6.0,77,0.00,,,0.00,VWS V14.01,2013-04-14 06:37:00,
2013-04-14 01:42:00,32.6,26.2,29.95,NE,50,3.0,6.0,77,0.00,,,0.00,VWS V14.01,2013-04-14 06:42:00,
2013-04-14 01:47:00,32.6,26.2,29.95,NE,54,3.0,6.0,77,0.00,,,0.00,VWS V14.01,2013-04-14 06:47:00,
2013-04-14 01:53:00,32.5,26.1,29.94,NE,54,1.0,7.0,77,0.00,,,0.00,VWS V14.01,2013-04-14 06:53:00,
2013-04-14 01:58:00,32.5,26.1,29.94,NE,51,4.0,7.0,77,0.00,,,0.00,VWS V14.01,2013-04-14 06:58:00,
2013-04-14 02:03:00,32.5,26.1,29.93,NE,53,5.0,6.0,77,0.00,,,0.00,VWS V14.01,2013-04-14 07:03:00,
2013-04-14 02:08:00,32.5,26.1,29.93,NE,55,0.0,7.0,77,0.00,,,0.00,VWS V14.01,2013-04-14 07:08:00,
2013-04-14 02:13:00,32.5,26.1,29.93,NE,53,3.0,8.0,77,0.00,,,0.00,VWS V14.01,2013-04-14 07:13:00,
2013-04-14 02:19:00,32.5,26.1,29.92,ENE,60,3.0,9.0,77,0.00,,,0.00,VWS V14.01,2013-04-14 07:19:00,
2013-04-14 02:24:00,32.5,26.1,29.92,NE,54,1.0,9.0,77,0.00,,,0.00,VWS V14.01,2013-04-14 07:24:00,
2013-04-14 02:29:00,32.5,26.1,29.91,ENE,58,1.0,9.0,77,0.00,,,0.00,VWS V14.01,2013-04-14 07:29:00,
2013-04-14 02:34:00,32.5,26.1,29.91,ENE,71,0.0,7.0,77,0.00,,,0.00,VWS V14.01,2013-04-14 07:34:00,
2013-04-14 02:40:00,32.5,26.1,29.91,NE,55,2.0,7.0,77,0.00,,,0.00,VWS V14.01,2013-04-14 07:40:00,
2013-04-14 02:45:00,32.5,26.1,29.91,East,79,4.0,7.0,77,0.00,,,0.00,VWS V14.01,2013-04-14 07:45:00,
2013-04-14 02:50:00,32.6,25.9,29.91,ENE,64,2.0,7.0,76,0.00,,,0.00,VWS V14.01,2013-04-14 07:50:00,
2013-04-14 02:55:00,32.6,26.2,29.91,ENE,77,2.0,7.0,77,0.00,,,0.00,VWS V14.01,2013-04-14 07:55:00,
2013-04-14 03:01:00,32.6,25.9,29.91,ENE,67,1.0,9.0,76,0.00,,,0.00,VWS V14.01,2013-04-14 08:01:00,
2013-04-14 03:06:00,32.6,25.9,29.91,ENE,65,2.0,7.0,76,0.00,,,0.00,VWS V14.01,2013-04-14 08:06:00,
2013-04-14 03:11:00,32.6,25.6,29.91,ENE,61,4.0,7.0,75,0.00,,,0.00,VWS V14.01,2013-04-14 08:11:00,
2013-04-14 03:17:00,32.5,25.5,29.91,ENE,67,0.0,7.0,75,0.00,,,0.00,VWS V14.01,2013-04-14 08:17:00,
2013-04-14 03:22:00,32.6,25.6,29.91,ENE,59,3.0,7.0,75,0.00,,,0.00,VWS V14.01,2013-04-14 08:22:00,
2013-04-14 03:27:00,32.5,25.5,29.91,East,80,0.0,7.0,75,0.00,,,0.00,VWS V14.01,2013-04-14 08:27:00,
2013-04-14 03:33:00,32.5,25.8,29.92,ENE,77,2.0,5.0,76,0.00,,,0.00,VWS V14.01,2013-04-14 08:33:00,
2013-04-14 03:38:00,32.5,25.8,29.92,NE,48,1.0,7.0,76,0.00,,,0.00,VWS V14.01,2013-04-14 08:38:00,
2013-04-14 03:43:00,32.5,25.5,29.91,ENE,77,2.0,7.0,75,0.00,,,0.00,VWS V14.01,2013-04-14 08:43:00,
2013-04-14 03:48:00,32.5,25.5,29.91,ENE,77,4.0,10.0,75,0.00,,,0.00,VWS V14.01,2013-04-14 08:48:00,
2013-04-14 03:53:00,32.5,25.1,29.91,ENE,77,6.0,12.0,74,0.00,,,0.00,VWS V14.01,2013-04-14 08:53:00,
2013-04-14 03:59:00,32.5,25.1,29.91,NE,44,6.0,12.0,74,0.00,,,0.00,VWS V14.01,2013-04-14 08:59:00,
2013-04-14 04:04:00,32.5,25.1,29.91,East,87,6.0,10.0,74,0.00,,,0.00,VWS V14.01,2013-04-14 09:04:00,
2013-04-14 04:09:00,32.4,25.0,29.91,ENE,76,0.0,11.0,74,0.00,,,0.00,VWS V14.01,2013-04-14 09:09:00,
2013-04-14 04:15:00,32.3,25.0,29.90,ENE,72,10.0,11.0,74,0.00,,,0.00,VWS V14.01,2013-04-14 09:15:00,
2013-04-14 04:20:00,32.2,25.2,29.90,NE,56,3.0,11.0,75,0.00,,,0.00,VWS V14.01,2013-04-14 09:20:00,
2013-04-14 04:25:00,32.1,25.1,29.89,NE,37,4.0,11.0,75,0.00,,,0.00,VWS V14.01,2013-04-14 09:25:00,
2013-04-14 04:30:00,32.1,25.1,29.90,ENE,72,3.0,11.0,75,0.00,,,0.00,VWS V14.01,2013-04-14 09:30:00,
2013-04-14 04:36:00,32.1,24.8,29.90,NE,54,4.0,8.0,74,0.00,,,0.00,VWS V14.01,2013-04-14 09:36:00,
2013-04-14 04:41:00,32.1,24.8,29.90,ENE,75,3.0,13.0,74,0.00,,,0.00,VWS V14.01,2013-04-14 09:41:00,
2013-04-14 04:46:00,32.1,24.8,29.90,ENE,63,5.0,13.0,74,0.00,,,0.00,VWS V14.01,2013-04-14 09:46:00,
2013-04-14 04:52:00,32.1,24.8,29.90,East,88,2.0,13.0,74,0.00,,,0.00,VWS V14.01,2013-04-14 09:52:00,
2013-04-14 04:57:00,32.0,24.7,29.90,NE,34,6.0,13.0,74,0.00,,,0.00,VWS V14.01,2013-04-14 09:57:00,
2013-04-14 05:02:00,31.9,24.6,29.90,ENE,62,10.0,10.0,74,0.00,,,0.00,VWS V14.01,2013-04-14 10:02:00,
2013-04-14 05:07:00,31.7,24.7,29.90,ENE,73,0.0,11.0,75,0.00,,,0.00,VWS V14.01,2013-04-14 10:07:00,
2013-04-14 05:13:00,31.7,24.7,29.90,ENE,68,3.0,11.0,75,0.00,,,0.00,VWS V14.01,2013-04-14 10:13:00,
2013-04-14 05:18:00,31.7,24.7,29.90,NE,45,0.0,11.0,75,0.00,,,0.00,VWS V14.01,2013-04-14 10:18:00,
2013-04-14 05:23:00,31.7,24.7,29.90,East,90,7.0,11.0,75,0.00,,,0.00,VWS V14.01,2013-04-14 10:23:00,
2013-04-14 05:28:00,31.6,24.6,29.90,NE,56,4.0,11.0,75,0.00,,,0.00,VWS V14.01,2013-04-14 10:28:00,
2013-04-14 05:34:00,31.6,24.9,29.90,ENE,58,3.0,11.0,76,0.00,,,0.00,VWS V14.01,2013-04-14 10:34:00,
2013-04-14 05:39:00,31.5,24.8,29.90,ENE,77,4.0,11.0,76,0.00,,,0.00,VWS V14.01,2013-04-14 10:39:00,
2013-04-14 05:44:00,31.3,24.9,29.90,NE,52,6.0,14.0,77,0.00,,,0.00,VWS V14.01,2013-04-14 10:44:00,
2013-04-14 05:50:00,31.1,25.0,29.89,ESE,119,4.0,15.0,78,0.00,,,0.00,VWS V14.01,2013-04-14 10:50:00,
2013-04-14 05:55:00,30.9,24.9,29.88,ENE,60,11.0,15.0,78,0.00,,,0.00,VWS V14.01,2013-04-14 10:55:00,
2013-04-14 06:00:00,30.7,25.0,29.88,NE,48,4.0,15.0,79,0.00,,,0.00,VWS V14.01,2013-04-14 11:00:00,
2013-04-14 06:05:00,30.6,24.9,29.88,East,79,6.0,9.0,79,0.00,,,0.00,VWS V14.01,2013-04-14 11:05:00,
2013-04-14 06:11:00,30.5,25.1,29.88,ENE,67,3.0,11.0,80,0.00,,,0.00,VWS V14.01,2013-04-14 11:11:00,
2013-04-14 06:16:00,30.5,25.1,29.87,East,84,6.0,11.0,80,0.00,,,0.00,VWS V14.01,2013-04-14 11:16:00,
2013-04-14 06:22:00,30.6,24.9,29.88,NE,56,4.0,12.0,79,0.00,,,0.00,VWS V14.01,2013-04-14 11:22:00,
2013-04-14 06:27:00,30.6,24.9,29.87,ENE,60,6.0,12.0,79,0.00,,,0.00,VWS V14.01,2013-04-14 11:27:00,
2013-04-14 06:30:00,30.6,24.9,29.87,NE,51,10.0,12.0,79,0.00,,,0.00,VWS V15.00,2013-04-14 11:30:00,
2013-04-14 06:32:00,30.6,24.9,29.87,ENE,70,4.0,11.0,79,0.00,,,0.00,VWS V14.01,2013-04-14 11:32:00,
2013-04-14 06:37:00,30.6,25.2,29.87,ENE,62,6.0,15.0,80,0.00,,,0.00,VWS V14.01,2013-04-14 11:37:00,
2013-04-14 06:42:00,30.5,25.1,29.88,ENE,69,4.0,15.0,80,0.00,,,0.00,VWS V14.01,2013-04-14 11:42:00,
2013-04-14 06:48:00,30.3,25.2,29.88,NE,42,5.0,15.0,81,0.00,,,0.00,VWS V14.01,2013-04-14 11:48:00,
2013-04-14 06:53:00,30.2,25.1,29.88,ENE,62,7.0,15.0,81,0.00,,,0.00,VWS V14.01,2013-04-14 11:53:00,
2013-04-14 06:58:00,30.1,25.0,29.87,ENE,77,7.0,15.0,81,0.00,,,0.00,VWS V14.01,2013-04-14 11:58:00,
2013-04-14 07:04:00,30.1,25.3,29.87,NE,54,3.0,14.0,82,0.00,,,0.00,VWS V14.01,2013-04-14 12:04:00,
2013-04-14 07:09:00,30.1,25.3,29.88,ENE,73,7.0,14.0,82,0.00,,,0.00,VWS V14.01,2013-04-14 12:09:00,
2013-04-14 07:14:00,30.1,25.3,29.87,ENE,67,9.0,14.0,82,0.00,,,0.00,VWS V14.01,2013-04-14 12:14:00,
2013-04-14 07:19:00,30.1,25.3,29.87,NE,44,4.0,14.0,82,0.00,,,0.00,VWS V14.01,2013-04-14 12:19:00,
2013-04-14 07:24:00,30.1,25.3,29.87,NE,54,5.0,14.0,82,0.00,,,0.00,VWS V14.01,2013-04-14 12:24:00,
2013-04-14 07:29:00,30.1,25.3,29.86,NE,51,6.0,14.0,82,0.00,,,0.00,VWS V14.01,2013-04-14 12:29:00,
2013-04-14 07:34:00,30.2,25.1,29.86,NE,45,7.0,16.0,81,0.00,,,0.00,VWS V14.01,2013-04-14 12:34:00,
2013-04-14 07:39:00,30.3,25.2,29.85,ENE,64,5.0,16.0,81,0.00,,,0.00,VWS V14.01,2013-04-14 12:39:00,
2013-04-14 07:44:00,30.3,25.2,29.85,ENE,63,3.0,18.0,81,0.00,,,0.00,VWS V14.01,2013-04-14 12:44:00,
2013-04-14 07:50:00,30.5,25.4,29.84,NE,39,4.0,18.0,81,0.00,,,0.00,VWS V14.01,2013-04-14 12:50:00,
2013-04-14 07:55:00,30.5,25.4,29.84,East,85,10.0,18.0,81,0.00,,,0.00,VWS V14.01,2013-04-14 12:55:00,
2013-04-14 08:00:00,30.6,25.5,29.84,ENE,67,8.0,18.0,81,0.00,,,0.00,VWS V14.01,2013-04-14 13:00:00,
2013-04-14 08:06:00,30.7,25.3,29.83,ENE,67,10.0,18.0,80,0.00,,,0.00,VWS V14.01,2013-04-14 13:06:00,
2013-04-14 08:11:00,30.8,25.4,29.83,ENE,69,10.0,18.0,80,0.00,,,0.00,VWS V14.01,2013-04-14 13:11:00,
2013-04-14 08:16:00,30.9,25.5,29.83,ENE,62,11.0,18.0,80,0.00,,,0.00,VWS V14.01,2013-04-14 13:16:00,
2013-04-14 08:21:00,31.0,25.3,29.82,NE,38,6.0,18.0,79,0.00,,,0.00,VWS V14.01,2013-04-14 13:21:00,
2013-04-14 08:26:00,31.1,25.4,29.82,NNE,17,5.0,18.0,79,0.00,,,0.00,VWS V14.01,2013-04-14 13:26:00,
2013-04-14 08:32:00,31.2,25.5,29.81,NE,47,9.0,16.0,79,0.00,,,0.00,VWS V14.01,2013-04-14 13:32:00,
2013-04-14 08:37:00,31.4,25.6,29.81,ENE,76,4.0,18.0,79,0.00,,,0.00,VWS V14.01,2013-04-14 13:37:00,
2013-04-14 08:43:00,31.5,25.4,29.81,NE,43,11.0,18.0,78,0.00,,,0.00,VWS V14.01,2013-04-14 13:43:00,
2013-04-14 08:48:00,31.6,25.5,29.80,ENE,76,5.0,18.0,78,0.00,,,0.00,VWS V14.01,2013-04-14 13:48:00,
2013-04-14 08:53:00,31.7,25.3,29.80,NE,53,11.0,18.0,77,0.00,,,0.00,VWS V14.01,2013-04-14 13:53:00,
2013-04-14 08:58:00,31.8,25.4,29.79,ENE,68,9.0,18.0,77,0.00,,,0.00,VWS V14.01,2013-04-14 13:58:00,
2013-04-14 09:03:00,31.9,25.2,29.79,NE,40,4.0,14.0,76,0.00,,,0.00,VWS V14.01,2013-04-14 14:03:00,
2013-04-14 09:08:00,32.1,25.4,29.78,ENE,60,5.0,15.0,76,0.00,,,0.00,VWS V14.01,2013-04-14 14:08:00,
2013-04-14 09:14:00,32.1,25.4,29.78,ENE,74,12.0,16.0,76,0.00,,,0.00,VWS V14.01,2013-04-14 14:14:00,
2013-04-14 09:19:00,32.2,25.2,29.78,NE,36,5.0,18.0,75,0.00,,,0.00,VWS V14.01,2013-04-14 14:19:00,
2013-04-14 09:24:00,32.2,25.2,29.78,ENE,69,13.0,18.0,75,0.00,,,0.00,VWS V14.01,2013-04-14 14:24:00,
2013-04-14 09:29:00,32.2,25.2,29.77,NE,53,11.0,18.0,75,0.00,,,0.00,VWS V14.01,2013-04-14 14:29:00,
2013-04-14 09:30:00,32.2,25.5,29.77,ENE,67,6.0,18.0,76,0.00,,,0.00,VWS V15.00,2013-04-14 14:30:00,
2013-04-14 09:34:00,32.1,25.4,29.77,ENE,59,13.0,17.0,76,0.00,,,0.00,VWS V14.01,2013-04-14 14:34:00,
2013-04-14 09:40:00,32.0,25.6,29.77,NE,43,14.0,20.0,77,0.00,,,0.00,VWS V14.01,2013-04-14 14:40:00,
2013-04-14 09:45:00,31.8,25.4,29.76,ENE,63,11.0,20.0,77,0.00,,,0.00,VWS V14.01,2013-04-14 14:45:00,
2013-04-14 09:50:00,31.8,25.7,29.76,ENE,59,7.0,20.0,78,0.00,,,0.00,VWS V14.01,2013-04-14 14:50:00,
2013-04-14 09:55:00,31.7,25.6,29.76,NE,43,10.0,20.0,78,0.00,,,0.00,VWS V14.01,2013-04-14 14:55:00,
2013-04-14 10:01:00,31.7,25.6,29.76,ENE,60,12.0,20.0,78,0.00,,,0.00,VWS V14.01,2013-04-14 15:01:00,
2013-04-14 10:06:00,31.7,25.6,29.76,ENE,58,6.0,20.0,78,0.00,,,0.00,VWS V14.01,2013-04-14 15:06:00,
2013-04-14 10:11:00,31.6,25.9,29.76,NE,56,12.0,20.0,79,0.00,,,0.00,VWS V14.01,2013-04-14 15:11:00,
2013-04-14 10:17:00,31.7,25.9,29.75,ENE,74,10.0,20.0,79,0.00,,,0.00,VWS V14.01,2013-04-14 15:17:00,
2013-04-14 10:22:00,31.7,26.2,29.73,NE,51,13.0,20.0,80,0.00,,,0.00,VWS V14.01,2013-04-14 15:22:00,
2013-04-14 10:27:00,31.8,26.4,29.74,ENE,74,6.0,20.0,80,0.00,,,0.00,VWS V14.01,2013-04-14 15:27:00,
2013-04-14 10:33:00,32.0,26.5,29.73,ENE,64,10.0,16.0,80,0.00,,,0.00,VWS V14.01,2013-04-14 15:33:00,
2013-04-14 10:38:00,32.1,26.6,29.73,East,81,5.0,19.0,80,0.00,,,0.00,VWS V14.01,2013-04-14 15:38:00,
2013-04-14 10:43:00,32.2,26.7,29.73,East,81,4.0,19.0,80,0.00,,,0.00,VWS V14.01,2013-04-14 15:43:00,
2013-04-14 10:48:00,32.2,26.7,29.73,ENE,76,10.0,19.0,80,0.00,,,0.00,VWS V14.01,2013-04-14 15:48:00,
2013-04-14 10:54:00,32.3,27.1,29.72,NE,54,14.0,19.0,81,0.00,,,0.00,VWS V14.01,2013-04-14 15:54:00,
2013-04-14 10:59:00,32.3,27.1,29.71,NE,53,6.0,19.0,81,0.00,,,0.00,VWS V14.01,2013-04-14 15:59:00,
2013-04-14 11:00:00,32.4,27.2,29.71,NNE,32,11.0,19.0,81,0.00,,,0.00,VWS V15.00,2013-04-14 16:00:00,
2013-04-14 11:04:00,32.5,27.3,29.71,NE,53,17.0,18.0,81,0.00,,,0.00,VWS V14.01,2013-04-14 16:04:00,
2013-04-14 11:10:00,32.5,27.3,29.71,ENE,57,9.0,18.0,81,0.00,,,0.00,VWS V14.01,2013-04-14 16:10:00,
2013-04-14 11:15:00,32.5,27.3,29.72,NE,46,11.0,19.0,81,0.00,,,0.00,VWS V14.01,2013-04-14 16:15:00,
2013-04-14 11:20:00,32.5,27.3,29.72,ENE,75,9.0,19.0,81,0.00,,,0.00,VWS V14.01,2013-04-14 16:20:00,
2013-04-14 11:25:00,32.4,27.2,29.72,ENE,69,12.0,23.0,81,0.00,,,0.00,VWS V14.01,2013-04-14 16:25:00,
2013-04-14 11:30:00,32.4,27.5,29.73,NE,52,11.0,23.0,82,0.00,,,0.00,VWS V14.01,2013-04-14 16:30:00,
2013-04-14 11:36:00,32.5,27.6,29.73,NE,34,10.0,21.0,82,0.00,,,0.00,VWS V14.01,2013-04-14 16:36:00,
2013-04-14 11:42:00,32.5,27.6,29.73,NE,54,14.0,21.0,82,0.00,,,0.00,VWS V14.01,2013-04-14 16:42:00,
2013-04-14 11:47:00,32.5,27.6,29.73,NE,51,9.0,21.0,82,0.00,,,0.00,VWS V14.01,2013-04-14 16:47:00,
2013-04-14 11:52:00,32.5,27.6,29.72,ENE,71,11.0,21.0,82,0.00,,,0.00,VWS V14.01,2013-04-14 16:52:00,
2013-04-14 11:57:00,32.6,28.0,29.72,ENE,60,14.0,21.0,83,0.00,,,0.00,VWS V14.01,2013-04-14 16:57:00,
2013-04-14 12:00:00,32.5,27.9,29.72,ENE,71,14.0,22.0,83,0.00,,,0.00,VWS V15.00,2013-04-14 17:00:00,
2013-04-14 12:02:00,32.5,27.9,29.72,ENE,58,3.0,17.0,83,0.00,,,0.00,VWS V14.01,2013-04-14 17:02:00,
2013-04-14 12:08:00,32.5,27.9,29.72,NE,50,7.0,21.0,83,0.00,,,0.00,VWS V14.01,2013-04-14 17:08:00,
2013-04-14 12:13:00,32.5,27.9,29.72,ENE,69,11.0,21.0,83,0.00,,,0.00,VWS V14.01,2013-04-14 17:13:00,
2013-04-14 12:18:00,32.5,27.9,29.72,East,95,10.0,21.0,83,0.00,,,0.00,VWS V14.01,2013-04-14 17:18:00,
2013-04-14 12:24:00,32.5,27.9,29.71,ENE,75,8.0,21.0,83,0.00,,,0.00,VWS V14.01,2013-04-14 17:24:00,
2013-04-14 12:29:00,32.5,27.9,29.71,ENE,75,8.0,21.0,83,0.00,,,0.00,VWS V14.01,2013-04-14 17:29:00,
2013-04-14 12:34:00,32.5,28.2,29.70,NE,47,9.0,14.0,84,0.00,,,0.00,VWS V14.01,2013-04-14 17:34:00,
2013-04-14 12:39:00,32.5,28.2,29.70,ENE,63,6.0,16.0,84,0.00,,,0.00,VWS V14.01,2013-04-14 17:39:00,
2013-04-14 12:45:00,32.5,28.2,29.69,NE,41,10.0,16.0,84,0.00,,,0.00,VWS V14.01,2013-04-14 17:45:00,
2013-04-14 12:50:00,32.6,28.3,29.69,NE,54,9.0,17.0,84,0.00,,,0.00,VWS V14.01,2013-04-14 17:50:00,
2013-04-14 12:55:00,32.6,28.3,29.68,ENE,61,6.0,18.0,84,0.00,,,0.00,VWS V14.01,2013-04-14 17:55:00,
2013-04-14 13:00:00,32.7,28.4,29.67,NE,51,6.0,21.0,84,0.00,,,0.00,VWS V14.01,2013-04-14 18:00:00,
2013-04-14 13:05:00,32.8,28.8,29.66,East,100,11.0,19.0,85,0.00,,,0.00,VWS V14.01,2013-04-14 18:05:00,
2013-04-14 13:11:00,32.8,28.8,29.66,ENE,58,6.0,19.0,85,0.00,,,0.00,VWS V14.01,2013-04-14 18:11:00,
2013-04-14 13:17:00,32.8,28.8,29.66,NE,49,16.0,19.0,85,0.00,,,0.00,VWS V14.01,2013-04-14 18:17:00,
2013-04-14 13:22:00,32.9,28.9,29.66,NE,52,3.0,19.0,85,0.00,,,0.00,VWS V14.01,2013-04-14 18:22:00,
2013-04-14 13:27:00,33.0,29.0,29.66,NE,55,10.0,19.0,85,0.00,,,0.00,VWS V14.01,2013-04-14 18:27:00,
2013-04-14 13:32:00,33.0,29.0,29.67,NNE,26,6.0,15.0,85,0.00,,,0.00,VWS V14.01,2013-04-14 18:32:00,
2013-04-14 13:38:00,33.0,29.0,29.67,NE,52,7.0,15.0,85,0.00,,,0.00,VWS V14.01,2013-04-14 18:38:00,
2013-04-14 13:43:00,33.2,29.2,29.66,ENE,58,5.0,20.0,85,0.00,,,0.00,VWS V14.01,2013-04-14 18:43:00,
2013-04-14 13:48:00,33.2,29.2,29.66,NE,36,12.0,20.0,85,0.00,,,0.00,VWS V14.01,2013-04-14 18:48:00,
2013-04-14 13:54:00,33.2,29.2,29.66,NNE,27,6.0,20.0,85,0.00,,,0.00,VWS V14.01,2013-04-14 18:54:00,
2013-04-14 13:59:00,33.2,29.2,29.65,ENE,77,10.0,20.0,85,0.00,,,0.00,VWS V14.01,2013-04-14 18:59:00,
2013-04-14 14:04:00,33.2,29.5,29.65,ENE,75,12.0,12.0,86,0.00,,,0.00,VWS V14.01,2013-04-14 19:04:00,
2013-04-14 14:10:00,33.2,29.5,29.64,NE,47,11.0,15.0,86,0.00,,,0.00,VWS V14.01,2013-04-14 19:10:00,
2013-04-14 14:15:00,33.3,29.6,29.64,ENE,72,10.0,15.0,86,0.00,,,0.00,VWS V14.01,2013-04-14 19:15:00,
2013-04-14 14:20:00,33.3,29.6,29.64,NE,56,7.0,20.0,86,0.00,,,0.00,VWS V14.01,2013-04-14 19:20:00,
2013-04-14 14:25:00,33.2,29.5,29.63,NNE,26,15.0,20.0,86,0.00,,,0.00,VWS V14.01,2013-04-14 19:25:00,
2013-04-14 14:31:00,33.2,29.5,29.63,ENE,77,5.0,20.0,86,0.00,,,0.00,VWS V14.01,2013-04-14 19:31:00,
2013-04-14 14:36:00,33.2,29.5,29.63,ENE,61,11.0,18.0,86,0.00,,,0.00,VWS V14.01,2013-04-14 19:36:00,
2013-04-14 14:42:00,33.3,29.6,29.63,NE,50,12.0,18.0,86,0.00,,,0.00,VWS V14.01,2013-04-14 19:42:00,
2013-04-14 14:47:00,33.3,29.6,29.61,ENE,58,12.0,20.0,86,0.00,,,0.00,VWS V14.01,2013-04-14 19:47:00,
2013-04-14 14:52:00,33.3,29.3,29.62,NNE,25,13.0,20.0,85,0.00,,,0.00,VWS V14.01,2013-04-14 19:52:00,
2013-04-14 14:57:00,33.2,29.5,29.61,NNE,32,10.0,20.0,86,0.00,,,0.00,VWS V14.01,2013-04-14 19:57:00,
2013-04-14 15:00:00,33.2,29.5,29.61,NE,48,5.0,20.0,86,0.00,,,0.00,VWS V15.00,2013-04-14 20:00:00,
2013-04-14 15:03:00,33.2,29.5,29.61,ENE,60,4.0,15.0,86,0.00,,,0.00,VWS V14.01,2013-04-14 20:03:00,
2013-04-14 15:08:00,33.2,29.5,29.61,East,88,10.0,20.0,86,0.00,,,0.00,VWS V14.01,2013-04-14 20:08:00,
2013-04-14 15:13:00,33.2,29.5,29.61,NNE,30,14.0,20.0,86,0.00,,,0.00,VWS V14.01,2013-04-14 20:13:00,
2013-04-14 15:18:00,33.1,29.4,29.60,ENE,66,14.0,20.0,86,0.00,,,0.00,VWS V14.01,2013-04-14 20:18:00,
2013-04-14 15:23:00,33.2,29.5,29.60,East,99,7.0,20.0,86,0.00,,,0.00,VWS V14.01,2013-04-14 20:23:00,
2013-04-14 15:29:00,33.2,29.5,29.60,NE,50,6.0,20.0,86,0.00,,,0.00,VWS V14.01,2013-04-14 20:29:00,
2013-04-14 15:30:00,33.2,29.5,29.59,ENE,73,11.0,20.0,86,0.00,,,0.00,VWS V15.00,2013-04-14 20:30:00,
2013-04-14 15:34:00,33.2,29.5,29.59,ENE,58,15.0,18.0,86,0.00,,,0.00,VWS V14.01,2013-04-14 20:34:00,
2013-04-14 15:39:00,33.2,29.5,29.58,NE,38,11.0,18.0,86,0.00,,,0.00,VWS V14.01,2013-04-14 20:39:00,
2013-04-14 15:45:00,33.1,29.4,29.58,ENE,63,4.0,18.0,86,0.00,,,0.00,VWS V14.01,2013-04-14 20:45:00,
2013-04-14 15:50:00,33.1,29.4,29.58,East,80,12.0,18.0,86,0.00,,,0.00,VWS V14.01,2013-04-14 20:50:00,
2013-04-14 15:55:00,33.1,29.4,29.57,NE,42,8.0,18.0,86,0.00,,,0.00,VWS V14.01,2013-04-14 20:55:00,
2013-04-14 16:00:00,33.1,29.4,29.58,East,97,9.0,18.0,86,0.00,,,0.00,VWS V14.01,2013-04-14 21:00:00,
2013-04-14 16:06:00,33.1,29.4,29.57,NE,39,5.0,18.0,86,0.00,,,0.00,VWS V14.01,2013-04-14 21:06:00,
2013-04-14 16:12:00,33.1,29.7,29.56,ENE,59,17.0,18.0,87,0.00,,,0.00,VWS V14.01,2013-04-14 21:12:00,
2013-04-14 16:17:00,33.1,29.7,29.56,NNE,33,9.0,18.0,87,0.00,,,0.00,VWS V14.01,2013-04-14 21:17:00,
2013-04-14 16:22:00,33.1,29.7,29.55,NE,56,6.0,20.0,87,0.00,,,0.00,VWS V14.01,2013-04-14 21:22:00,
2013-04-14 16:27:00,33.2,29.5,29.55,NE,51,7.0,20.0,86,0.00,,,0.00,VWS V14.01,2013-04-14 21:27:00,
2013-04-14 16:30:00,33.2,29.5,29.55,NNE,33,8.0,20.0,86,0.00,,,0.00,VWS V15.00,2013-04-14 21:30:00,
2013-04-14 16:32:00,33.2,29.5,29.55,ENE,74,8.0,18.0,86,0.00,,,0.00,VWS V14.01,2013-04-14 21:32:00,
2013-04-14 16:37:00,33.2,29.5,29.55,ENE,71,10.0,22.0,86,0.00,,,0.00,VWS V14.01,2013-04-14 21:37:00,
2013-04-14 16:43:00,33.3,29.6,29.55,ENE,60,8.0,22.0,86,0.02,,,0.02,VWS V14.01,2013-04-14 21:43:00,
2013-04-14 16:48:00,33.3,29.6,29.55,NE,50,11.0,22.0,86,0.02,,,0.02,VWS V14.01,2013-04-14 21:48:00,
2013-04-14 16:54:00,33.3,29.6,29.54,ESE,104,6.0,22.0,86,0.03,,,0.03,VWS V14.01,2013-04-14 21:54:00,
2013-04-14 16:59:00,33.2,29.5,29.54,ESE,103,13.0,22.0,86,0.03,,,0.03,VWS V14.01,2013-04-14 21:59:00,
2013-04-14 17:04:00,33.3,29.6,29.53,NE,53,5.0,13.0,86,0.03,,,0.03,VWS V14.01,2013-04-14 22:04:00,
2013-04-14 17:09:00,33.2,29.8,29.53,ENE,73,9.0,17.0,87,0.04,,,0.04,VWS V14.01,2013-04-14 22:09:00,
2013-04-14 17:14:00,33.2,29.8,29.53,NE,54,11.0,17.0,87,0.04,,,0.04,VWS V14.01,2013-04-14 22:14:00,
2013-04-14 17:19:00,33.3,29.9,29.54,North,6,11.0,20.0,87,0.04,,,0.04,VWS V14.01,2013-04-14 22:19:00,
2013-04-14 17:25:00,33.3,29.6,29.54,NE,49,17.0,20.0,86,0.05,,,0.05,VWS V14.01,2013-04-14 22:25:00,
2013-04-14 17:30:00,33.2,29.8,29.53,ENE,73,6.0,20.0,87,0.07,,,0.07,VWS V14.01,2013-04-14 22:30:00,
2013-04-14 17:36:00,33.2,29.8,29.53,ENE,61,5.0,16.0,87,0.09,,,0.09,VWS V14.01,2013-04-14 22:36:00,
2013-04-14 17:41:00,33.2,29.8,29.53,NE,52,4.0,16.0,87,0.10,,,0.10,VWS V14.01,2013-04-14 22:41:00,
2013-04-14 17:47:00,33.2,29.8,29.52,NE,56,3.0,18.0,87,0.11,,,0.11,VWS V14.01,2013-04-14 22:47:00,
2013-04-14 17:52:00,33.1,29.7,29.52,ENE,57,13.0,18.0,87,0.13,,,0.13,VWS V14.01,2013-04-14 22:52:00,
2013-04-14 17:57:00,33.2,29.8,29.52,ENE,73,6.0,18.0,87,0.13,,,0.13,VWS V14.01,2013-04-14 22:57:00,
2013-04-14 18:03:00,33.2,29.8,29.51,East,82,13.0,17.0,87,0.12,,,0.15,VWS V14.01,2013-04-14 23:03:00,
2013-04-14 18:08:00,33.2,29.8,29.51,ENE,77,10.0,17.0,87,0.12,,,0.15,VWS V14.01,2013-04-14 23:08:00,
2013-04-14 18:13:00,33.2,29.8,29.51,NE,51,13.0,17.0,87,0.13,,,0.16,VWS V14.01,2013-04-14 23:13:00,
2013-04-14 18:18:00,33.3,29.9,29.51,NE,55,12.0,17.0,87,0.13,,,0.16,VWS V14.01,2013-04-14 23:18:00,
2013-04-14 18:23:00,33.3,29.9,29.51,NE,56,6.0,17.0,87,0.14,,,0.17,VWS V14.01,2013-04-14 23:23:00,
2013-04-14 18:29:00,33.3,29.9,29.50,NE,54,13.0,18.0,87,0.14,,,0.17,VWS V14.01,2013-04-14 23:29:00,
2013-04-14 18:34:00,33.4,30.0,29.52,ENE,57,5.0,17.0,87,0.10,,,0.17,VWS V14.01,2013-04-14 23:34:00,
2013-04-14 18:39:00,33.5,30.0,29.52,East,90,8.0,17.0,87,0.10,,,0.17,VWS V14.01,2013-04-14 23:39:00,
2013-04-14 18:44:00,33.5,30.0,29.52,NE,55,5.0,17.0,87,0.10,,,0.17,VWS V14.01,2013-04-14 23:44:00,
2013-04-14 18:50:00,33.5,30.0,29.51,ENE,77,5.0,17.0,87,0.10,,,0.17,VWS V14.01,2013-04-14 23:50:00,
2013-04-14 18:55:00,33.6,30.1,29.51,ENE,75,13.0,17.0,87,0.10,,,0.17,VWS V14.01,2013-04-14 23:55:00,
2013-04-14 19:00:00,33.6,30.1,29.51,NE,55,7.0,17.0,87,0.10,,,0.17,VWS V14.01,2013-04-15 00:00:00,
2013-04-14 19:05:00,33.6,30.1,29.51,ENE,72,6.0,15.0,87,0.03,,,0.17,VWS V14.01,2013-04-15 00:05:00,
2013-04-14 19:10:00,33.7,30.2,29.52,NE,54,6.0,16.0,87,0.03,,,0.17,VWS V14.01,2013-04-15 00:10:00,
2013-04-14 19:15:00,33.7,30.2,29.51,NE,44,4.0,16.0,87,0.03,,,0.17,VWS V14.01,2013-04-15 00:15:00,
2013-04-14 19:21:00,33.8,30.4,29.51,NE,50,10.0,16.0,87,0.03,,,0.17,VWS V14.01,2013-04-15 00:21:00,
2013-04-14 19:27:00,33.8,30.4,29.51,ENE,60,3.0,16.0,87,0.03,,,0.17,VWS V14.01,2013-04-15 00:27:00,
2013-04-14 19:32:00,33.8,30.4,29.51,ENE,63,6.0,10.0,87,0.00,,,0.17,VWS V14.01,2013-04-15 00:32:00,
2013-04-14 19:37:00,33.8,30.4,29.51,ENE,71,9.0,12.0,87,0.00,,,0.17,VWS V14.01,2013-04-15 00:37:00,
2013-04-14 19:43:00,33.9,30.5,29.51,NE,50,6.0,12.0,87,0.00,,,0.17,VWS V14.01,2013-04-15 00:43:00,
2013-04-14 19:48:00,33.9,30.5,29.51,East,87,4.0,12.0,87,0.00,,,0.17,VWS V14.01,2013-04-15 00:48:00,
2013-04-14 19:54:00,33.9,30.5,29.51,East,87,6.0,14.0,87,0.00,,,0.17,VWS V14.01,2013-04-15 00:54:00,
2013-04-14 19:59:00,34.0,30.5,29.51,NE,46,5.0,14.0,87,0.00,,,0.17,VWS V14.01,2013-04-15 00:59:00,
2013-04-14 20:00:00,34.0,30.5,29.51,ESE,123,8.0,14.0,87,0.00,,,0.17,VWS V15.00,2013-04-15 01:00:00,
2013-04-14 20:05:00,34.0,30.5,29.51,ENE,73,6.0,8.0,87,0.00,,,0.17,VWS V14.01,2013-04-15 01:05:00,
2013-04-14 20:10:00,34.1,30.6,29.50,NE,44,5.0,10.0,87,0.00,,,0.17,VWS V14.01,2013-04-15 01:10:00,
2013-04-14 20:15:00,34.1,30.6,29.50,ENE,63,6.0,12.0,87,0.00,,,0.17,VWS V14.01,2013-04-15 01:15:00,
2013-04-14 20:21:00,34.2,30.7,29.50,ESE,106,4.0,13.0,87,0.00,,,0.17,VWS V14.01,2013-04-15 01:21:00,
2013-04-14 20:26:00,34.2,30.7,29.50,ENE,57,6.0,13.0,87,0.00,,,0.17,VWS V14.01,2013-04-15 01:26:00,
2013-04-14 20:32:00,34.2,30.7,29.50,East,87,10.0,10.0,87,0.00,,,0.17,VWS V14.01,2013-04-15 01:32:00,
2013-04-14 20:37:00,34.3,30.8,29.50,ENE,63,3.0,15.0,87,0.00,,,0.17,VWS V14.01,2013-04-15 01:37:00,
2013-04-14 20:42:00,34.3,30.8,29.51,ENE,78,6.0,15.0,87,0.00,,,0.17,VWS V14.01,2013-04-15 01:42:00,
2013-04-14 20:47:00,34.3,30.8,29.51,ESE,102,4.0,15.0,87,0.00,,,0.17,VWS V14.01,2013-04-15 01:47:00,
2013-04-14 20:53:00,34.3,30.8,29.51,ENE,77,7.0,15.0,87,0.00,,,0.17,VWS V14.01,2013-04-15 01:53:00,
2013-04-14 20:58:00,34.3,30.8,29.52,East,92,7.0,15.0,87,0.00,,,0.17,VWS V14.01,2013-04-15 01:58:00,
2013-04-14 21:00:00,34.3,30.8,29.53,East,92,5.0,15.0,87,0.00,,,0.17,VWS V15.00,2013-04-15 02:00:00,
2013-04-14 21:03:00,34.3,31.1,29.52,ENE,71,9.0,11.0,88,0.00,,,0.17,VWS V14.01,2013-04-15 02:03:00,
2013-04-14 21:09:00,34.3,31.1,29.52,ENE,73,3.0,12.0,88,0.01,,,0.18,VWS V14.01,2013-04-15 02:09:00,
2013-04-14 21:14:00,34.3,31.1,29.53,ESE,103,0.0,13.0,88,0.01,,,0.18,VWS V14.01,2013-04-15 02:14:00,
2013-04-14 21:19:00,34.3,31.1,29.52,ENE,64,11.0,13.0,88,0.01,,,0.18,VWS V14.01,2013-04-15 02:19:00,
2013-04-14 21:24:00,34.4,31.2,29.52,ENE,75,5.0,13.0,88,0.01,,,0.18,VWS V14.01,2013-04-15 02:24:00,
2013-04-14 21:30:00,34.4,31.5,29.53,East,79,6.0,13.0,89,0.01,,,0.18,VWS V14.01,2013-04-15 02:30:00,
2013-04-14 21:35:00,34.4,31.5,29.53,East,84,5.0,13.0,89,0.01,,,0.18,VWS V14.01,2013-04-15 02:35:00,
2013-04-14 21:40:00,34.4,31.5,29.53,East,83,11.0,13.0,89,0.01,,,0.18,VWS V14.01,2013-04-15 02:40:00,
2013-04-14 21:45:00,34.5,31.6,29.53,East,94,6.0,14.0,89,0.01,,,0.18,VWS V14.01,2013-04-15 02:45:00,
2013-04-14 21:51:00,34.5,31.6,29.54,East,100,9.0,14.0,89,0.01,,,0.18,VWS V14.01,2013-04-15 02:51:00,
2013-04-14 21:56:00,34.6,31.7,29.53,East,91,9.0,14.0,89,0.01,,,0.18,VWS V14.01,2013-04-15 02:56:00,
2013-04-14 22:01:00,34.6,31.7,29.53,East,87,8.0,10.0,89,0.01,,,0.18,VWS V14.01,2013-04-15 03:01:00,
2013-04-14 22:07:00,34.9,32.0,29.53,ESE,114,6.0,14.0,89,0.01,,,0.18,VWS V14.01,2013-04-15 03:07:00,
2013-04-14 22:12:00,35.1,32.2,29.53,SE,124,6.0,14.0,89,0.01,,,0.18,VWS V14.01,2013-04-15 03:12:00,
2013-04-14 22:17:00,35.2,32.3,29.52,East,99,10.0,14.0,89,0.01,,,0.18,VWS V14.01,2013-04-15 03:17:00,
2013-04-14 22:23:00,35.3,32.7,29.52,ESE,102,18.0,18.0,90,0.01,,,0.18,VWS V14.01,2013-04-15 03:23:00,
2013-04-14 22:28:00,35.6,33.0,29.54,SE,131,8.0,18.0,90,0.01,,,0.18,VWS V14.01,2013-04-15 03:28:00,
2013-04-14 22:33:00,35.7,33.1,29.54,SSE,159,5.0,11.0,90,0.00,,,0.18,VWS V14.01,2013-04-15 03:33:00,
2013-04-14 22:38:00,35.9,33.3,29.53,South,190,5.0,11.0,90,0.00,,,0.18,VWS V14.01,2013-04-15 03:38:00,
2013-04-14 22:43:00,36.1,33.5,29.54,South,186,4.0,15.0,90,0.00,,,0.18,VWS V14.01,2013-04-15 03:43:00,
2013-04-14 22:49:00,36.3,33.7,29.53,South,180,9.0,15.0,90,0.00,,,0.18,VWS V14.01,2013-04-15 03:49:00,
2013-04-14 22:54:00,36.4,33.8,29.53,SE,140,4.0,15.0,90,0.00,,,0.18,VWS V14.01,2013-04-15 03:54:00,
2013-04-14 22:59:00,36.4,33.8,29.53,South,182,12.0,15.0,90,0.00,,,0.18,VWS V14.01,2013-04-15 03:59:00,
2013-04-14 23:00:00,36.4,33.8,29.53,South,177,6.0,15.0,90,0.00,,,0.18,VWS V14.01,2013-04-15 04:00:00,
2013-04-14 23:01:00,36.4,33.8,29.53,South,181,0.0,6.0,90,0.00,,,0.18,VWS V14.01,2013-04-15 04:01:00,
2013-04-14 23:02:00,36.3,33.7,29.53,SSE,163,7.0,9.0,90,0.00,,,0.18,VWS V14.01,2013-04-15 04:02:00,
2013-04-14 23:07:00,36.4,33.8,29.53,SSE,167,4.0,12.0,90,0.00,,,0.18,VWS V14.01,2013-04-15 04:07:00,
2013-04-14 23:12:00,36.4,33.8,29.54,SSE,168,5.0,13.0,90,0.00,,,0.18,VWS V14.01,2013-04-15 04:12:00,
2013-04-14 23:18:00,36.4,33.8,29.53,SSE,165,7.0,13.0,90,0.00,,,0.18,VWS V14.01,2013-04-15 04:18:00,
2013-04-14 23:23:00,36.4,33.5,29.53,SSE,160,8.0,14.0,89,0.00,,,0.18,VWS V14.01,2013-04-15 04:23:00,
2013-04-14 23:28:00,36.5,33.6,29.53,South,181,9.0,17.0,89,0.00,,,0.18,VWS V14.01,2013-04-15 04:28:00,
2013-04-14 23:33:00,36.7,33.2,29.53,South,188,6.0,14.0,87,0.00,,,0.18,VWS V14.01,2013-04-15 04:33:00,
2013-04-14 23:38:00,36.8,32.7,29.53,South,173,13.0,14.0,85,0.00,,,0.18,VWS V14.01,2013-04-15 04:38:00,
2013-04-14 23:44:00,36.8,32.4,29.53,South,178,4.0,15.0,84,0.00,,,0.18,VWS V14.01,2013-04-15 04:44:00,
2013-04-14 23:49:00,36.8,32.1,29.53,South,178,11.0,15.0,83,0.00,,,0.18,VWS V14.01,2013-04-15 04:49:00,
2013-04-14 23:54:00,36.7,32.0,29.53,SSW,194,3.0,16.0,83,0.00,,,0.18,VWS V14.01,2013-04-15 04:54:00,